Kelowna, British Columbia

9:16 PM PDT on May 25, 2017 (GMT -0700)
Kelowna

Weather History for CYLW - February, 2014

Change the Weather History Date:

Wednesday, February 26, 2014

  Actual Average Record
Temperature  
Mean Temperature 20 °F -  
Max Temperature 32 °F 45 °F 48 °F (2005)
Min Temperature 7 °F 26 °F 5 °F (2009)
Degree Days  
Heating Degree Days 46    
Moisture  
Dew Point 14 °F    
Average Humidity 75    
Maximum Humidity 92    
Minimum Humidity 43    
Precipitation  
Precipitation 0.00 in 0.03 in - ()
Sea Level Pressure  
Sea Level Pressure 30.22 in    
Wind  
Wind Speed 2 mph ()    
Max Wind Speed 5 mph    
Max Gust Speed -    
Visibility 9.1 miles    
Events      
Averages and records for this station are not official NWS values.
T = Trace of Precipitation, MM = Missing Value Source: Averaged Metar Reports

Daily Weather History Graph

Daily Weather History Graph

Search for Another Location

Airport or City:

Trip Planner

Search our weather history database for the weather conditions in past years. The results will help you decide how hot, cold, wet, or windy it might be!

Date:

Astronomy

Feb. 26, 2014 Rise Set
Actual Time 6:46 AM PST 5:34 PM PST
Civil Twilight 6:14 AM PST 6:07 PM PST
Nautical Twilight 5:36 AM PST 6:44 PM PST
Astronomical Twilight 4:59 AM PST 7:22 PM PST
Moon 4:49 AM PST 2:44 PM PST
Length of Visible Light 11h 53m
Length of Day
10h 48m
Waning Crescent, 9% of the Moon is Illuminated
Feb 26
Waning Crescent
Mar 1
New
Mar 8
First Quarter
Mar 16
Full
Mar 23
Last Quarter

Hourly Weather History & Observations

Time (PST) Temp. Windchill Dew Point Humidity Pressure Visibility Wind Dir Wind Speed Gust Speed Precip Events Conditions
12:00 AM 14.0 °F - 10.4 °F 86% 30.42 in 9.0 mi North 2.3 mph - N/A   Clear
1:00 AM 12.2 °F - 8.6 °F 85% 30.41 in 9.0 mi Calm Calm - N/A   Clear
2:00 AM 10.4 °F - 8.6 °F 92% 30.40 in 9.0 mi North 2.3 mph - N/A   Clear
3:00 AM 12.2 °F 6.1 °F 10.4 °F 92% 30.39 in 9.0 mi North 3.5 mph - N/A   Clear
4:00 AM 10 °F - 7 °F 84% 30.38 in 10 mi NNE 3.5 mph - -  
4:00 AM 8.6 °F 2.0 °F 6.8 °F 92% 30.38 in 9.0 mi North 3.5 mph - N/A   Clear
5:00 AM 10.4 °F - 8.6 °F 92% 30.38 in 9.0 mi North 2.3 mph - N/A   Clear
6:00 AM 10.4 °F 4.0 °F 8.6 °F 92% 30.37 in 9.0 mi NNE 3.5 mph - N/A   Clear
7:00 AM 8.6 °F 2.0 °F 6.8 °F 92% 30.36 in 9.0 mi North 3.5 mph - N/A   Clear
8:00 AM 14.0 °F - 10.4 °F 86% 30.35 in 9.0 mi NE 2.3 mph - N/A   Clear
9:00 AM 19.4 °F - 12.2 °F 74% 30.32 in 9.0 mi Calm Calm - N/A   Clear
10:00 AM 22 °F - 14 °F 62% 30.30 in 10 mi ESE 2.3 mph - -  
10:00 AM 23.0 °F - 14.0 °F 68% 30.30 in 9.0 mi Calm Calm - N/A   Partly Cloudy
11:00 AM 24.8 °F 20.5 °F 14.0 °F 64% 30.27 in 9.0 mi South 3.5 mph - N/A   Clear
12:00 PM 28.4 °F - 15.8 °F 59% 30.22 in 9.0 mi Calm Calm - N/A   Clear
1:00 PM 30.2 °F 25.4 °F 15.8 °F 55% 30.18 in 9.0 mi Variable 4.6 mph - N/A   Clear
2:00 PM 30.2 °F 26.7 °F 15.8 °F 55% 30.14 in 9.0 mi South 3.5 mph - N/A   Overcast
3:00 PM 30.2 °F - 15.8 °F 55% 30.11 in 9.0 mi Calm Calm - N/A   Overcast
4:00 PM 31 °F - 17 °F 43% 30.09 in 10 mi SSE 2.3 mph - -  
4:00 PM 32.0 °F - 17.6 °F 55% 30.09 in 9.0 mi Variable 2.3 mph - N/A   Mostly Cloudy
5:00 PM 30.2 °F 26.7 °F 17.6 °F 60% 30.06 in 9.0 mi South 3.5 mph - N/A   Mostly Cloudy
6:00 PM 26.6 °F 21.2 °F 19.4 °F 74% 30.05 in 9.0 mi South 4.6 mph - N/A   Mostly Cloudy
7:00 PM 28.4 °F 24.6 °F 19.4 °F 69% 30.04 in 9.0 mi SSE 3.5 mph - N/A   Overcast
8:00 PM 26.6 °F - 19.4 °F 74% 30.02 in 9.0 mi Calm Calm - N/A   Partly Cloudy
9:00 PM 24.8 °F - 19.4 °F 80% 30.02 in 9.0 mi Variable 2.3 mph - N/A   Partly Cloudy
10:00 PM 21 °F - 18 °F 83% 30.00 in 10 mi ENE 2.3 mph - -  
10:00 PM 21.2 °F - 17.6 °F 86% 30.00 in 9.0 mi ENE 2.3 mph - N/A   Clear
11:00 PM 23.0 °F - 19.4 °F 86% 29.99 in 9.0 mi Calm Calm - N/A   Partly Cloudy